Regional Weather Roundup
Issued by NWS

Home | Current Version | Previous Version | Graphics & Text | Print | Product List | Glossary On
Versions: 1 2 3 4 5 6 7 8 9 10 11 12 13 14 15 16 17 18 19 20 21 22 23 24 25 26 27 28 29 30 31 32 33 34 35 36 37 38 39 40 41 42 43 44 45 46 47 48 49 50
000
ASUS43 KTOP 162208
RWRKS

WEATHER ROUNDUP FOR KANSAS
NATIONAL WEATHER SERVICE GOODLAND KS
400 PM CST TUE JAN 16 2018

NOTE:  "FAIR" INDICATES FEW OR NO CLOUDS BELOW 12,000 FEET WITH NO
SIGNIFICANT WEATHER AND/OR OBSTRUCTIONS TO VISIBILITY.

KSZ001>006-013>018-027>032-041>047-162300-
NORTHWEST KANSAS

CITY           SKY/WX    TMP DP  RH WIND       PRES   REMARKS
GOODLAND       SUNNY     23  -7  26 S8        30.46F
HAYS           SUNNY     20   4  50 NW6       30.66F
HILL CITY      SUNNY     17   1  49 CALM      30.63F
RUSSELL        SUNNY     18   4  54 NW7       30.65F
$$

KSZ061>065-074>080-084>089-162300-
SOUTHWEST KANSAS

CITY           SKY/WX    TMP DP  RH WIND       PRES   REMARKS
DODGE CITY     SUNNY     20  -3  36 N6        30.60F
ELKHART        SUNNY     29   6  36 CALM      30.51F
GARDEN CITY    SUNNY     21 -14  20 N9        30.56F
GREAT BEND     SUNNY     17   4  56 NW8       30.67
LIBERAL        SUNNY     24  -6  26 NW6       30.58F
PRATT          SUNNY     17   0  47 N9        30.66F
$$

KSZ066>073-081>083-090>101-162300-
SOUTHEAST KANSAS

CITY           SKY/WX    TMP DP  RH WIND       PRES   REMARKS
CHANUTE        MOSUNNY   12   4  70 NW8       30.74R
COFFEYVILLE    MOSUNNY   13   3  64 NW9       30.77F
HUTCHINSON     SUNNY     16   6  65 N10       30.70F WCI   4
NEWTON         SUNNY     14   5  67 NW12      30.70F WCI   0
PARSONS        MOSUNNY   12   4  70 NW10      30.76S WCI  -1
WICHITA INTL   MOSUNNY   16   6  65 N14       30.71F WCI   2
WICHITA JABRA  MOSUNNY   13   6  74 NW12      30.71F WCI  -1
WICHITA MCCONL SUNNY     14   4  64 N10       30.71S WCI   1
WINFIELD       SUNNY     16   5  62 N12       30.74F WCI   3
$$

KSZ007>012-019>026-033>040-048>060-102>105-162300-
NORTHEAST KANSAS

CITY           SKY/WX    TMP DP  RH WIND       PRES   REMARKS
CONCORDIA      SUNNY     14   4  64 NW7       30.69F
EMPORIA        MOSUNNY   12   3  67 W8        30.71S
LAWRENCE       SUNNY     12   2  64 W9        30.74S
MANHATTAN      SUNNY     13   2  61 VRB7      30.74S
MARYSVILLE     SUNNY     12   5  73 NW8       30.71S
OLATHE IND     SUNNY     10   2  69 NW10      30.72R WCI  -4
OLATHE EXE     MOSUNNY    9   1  70 NW9       30.71R
SALINA         SUNNY     17   5  59 NW6       30.72F
TOPEKA BILLARD SUNNY     14   4  64 NW8       30.73F
TOPEKA FORBES  SUNNY     13   3  64 NW10      30.71S WCI   0
$$



USA.gov is the U.S. government's official web portal to all federal, state and local government web resources and services.